TimeEST,TemperatureF,Dew PointF,Humidity,Sea Level PressureIn,VisibilityMPH,Wind Direction,Wind SpeedMPH,Gust SpeedMPH,PrecipitationIn,Events,Conditions,WindDirDegrees,DateUTC
12:15 AM,44.6,44.6,100,30.21,10.0,NNW,8.1,-,N/A,Rain,Light Rain,340,2012-12-13 05:15:00
12:35 AM,44.6,44.6,100,30.22,10.0,NW,8.1,-,N/A,Rain,Light Rain,310,2012-12-13 05:35:00
12:55 AM,44.6,44.6,100,30.22,10.0,NNW,11.5,-,N/A,,Light Drizzle,340,2012-12-13 05:55:00
1:15 AM,44.6,44.6,100,30.20,10.0,North,12.7,19.6,N/A,,Overcast,350,2012-12-13 06:15:00
1:35 AM,42.8,42.8,100,30.21,10.0,North,13.8,19.6,N/A,,Light Drizzle,360,2012-12-13 06:35:00
1:55 AM,42.8,42.8,100,30.20,10.0,North,12.7,18.4,N/A,Rain,Light Rain,360,2012-12-13 06:55:00
2:15 AM,42.8,42.8,100,30.19,7.0,North,10.4,-,N/A,,Light Drizzle,360,2012-12-13 07:15:00
2:35 AM,42.8,42.8,100,30.20,10.0,North,11.5,16.1,N/A,,Overcast,350,2012-12-13 07:35:00
2:55 AM,42.8,42.8,100,30.21,10.0,North,12.7,18.4,N/A,,Overcast,10,2012-12-13 07:55:00
3:15 AM,42.8,42.8,100,30.20,7.0,North,12.7,18.4,N/A,Rain,Rain,10,2012-12-13 08:15:00
3:35 AM,41.0,41.0,100,30.19,10.0,North,8.1,19.6,N/A,Rain,Rain,10,2012-12-13 08:35:00
4:15 AM,41.0,41.0,100,30.18,7.0,NNE,9.2,-,N/A,Rain,Rain,20,2012-12-13 09:15:00
4:35 AM,41.0,41.0,100,30.18,7.0,North,4.6,-,N/A,Rain,Rain,10,2012-12-13 09:35:00
4:55 AM,41.0,41.0,100,30.20,10.0,NNW,5.8,-,N/A,Rain,Light Rain,330,2012-12-13 09:55:00
5:35 AM,41.0,41.0,100,30.21,10.0,North,10.4,-,N/A,Rain,Rain,360,2012-12-13 10:35:00
5:55 AM,41.0,41.0,100,30.23,10.0,NNW,9.2,-,N/A,Rain,Light Rain,340,2012-12-13 10:55:00
6:15 AM,41.0,41.0,100,30.23,10.0,North,10.4,-,N/A,,Drizzle,350,2012-12-13 11:15:00
6:35 AM,42.8,42.8,100,30.25,10.0,North,10.4,16.1,N/A,,Overcast,350,2012-12-13 11:35:00
6:55 AM,42.8,42.8,100,30.25,10.0,North,11.5,19.6,N/A,Rain,Light Rain,350,2012-12-13 11:55:00
7:15 AM,41.0,41.0,100,30.26,10.0,North,10.4,-,N/A,,Overcast,350,2012-12-13 12:15:00
7:35 AM,41.0,41.0,100,30.27,10.0,North,10.4,19.6,N/A,,Overcast,360,2012-12-13 12:35:00
7:55 AM,41.0,41.0,100,30.28,7.0,North,12.7,18.4,N/A,,Overcast,10,2012-12-13 12:55:00
8:15 AM,41.0,41.0,100,30.29,5.0,North,15.0,19.6,N/A,,Overcast,350,2012-12-13 13:15:00
8:35 AM,41.0,41.0,100,30.29,7.0,North,12.7,16.1,N/A,,Overcast,10,2012-12-13 13:35:00
8:55 AM,41.0,41.0,100,30.30,10.0,North,12.7,18.4,N/A,,Overcast,360,2012-12-13 13:55:00
9:15 AM,41.0,41.0,100,30.31,10.0,North,12.7,18.4,N/A,,Overcast,360,2012-12-13 14:15:00
9:35 AM,41.0,41.0,100,30.32,5.0,North,11.5,19.6,N/A,,Overcast,360,2012-12-13 14:35:00
9:55 AM,41.0,41.0,100,30.33,3.0,North,10.4,-,N/A,,Overcast,360,2012-12-13 14:55:00
10:15 AM,41.0,41.0,100,30.33,3.0,North,10.4,18.4,N/A,,Overcast,10,2012-12-13 15:15:00
10:35 AM,42.8,42.8,100,30.34,5.0,North,10.4,-,N/A,,Overcast,360,2012-12-13 15:35:00
10:55 AM,42.8,42.8,100,30.33,5.0,North,10.4,17.3,N/A,,Overcast,10,2012-12-13 15:55:00
11:35 AM,42.8,42.8,100,30.32,5.0,North,11.5,-,N/A,,Overcast,10,2012-12-13 16:35:00
11:55 AM,42.8,42.8,100,30.31,7.0,NNE,8.1,-,N/A,,Overcast,30,2012-12-13 16:55:00
12:15 PM,42.8,42.8,100,30.30,7.0,NNE,10.4,-,N/A,,Overcast,20,2012-12-13 17:15:00
12:35 PM,44.6,42.8,93,30.30,10.0,North,9.2,-,N/A,,Overcast,10,2012-12-13 17:35:00
12:55 PM,44.6,42.8,93,30.29,10.0,North,12.7,18.4,N/A,,Overcast,10,2012-12-13 17:55:00
1:15 PM,44.6,42.8,93,30.29,10.0,North,8.1,-,N/A,,Overcast,360,2012-12-13 18:15:00
1:35 PM,44.6,42.8,93,30.29,10.0,North,10.4,-,N/A,,Overcast,360,2012-12-13 18:35:00
1:55 PM,44.6,42.8,93,30.28,10.0,North,8.1,-,N/A,,Overcast,360,2012-12-13 18:55:00
2:15 PM,44.6,44.6,100,30.28,10.0,North,10.4,-,N/A,,Overcast,10,2012-12-13 19:15:00
2:35 PM,46.4,44.6,93,30.28,10.0,North,10.4,-,N/A,,Overcast,360,2012-12-13 19:35:00
2:55 PM,46.4,44.6,93,30.28,10.0,North,10.4,-,N/A,,Overcast,10,2012-12-13 19:55:00
3:15 PM,46.4,44.6,93,30.28,10.0,North,6.9,-,N/A,,Overcast,360,2012-12-13 20:15:00
3:35 PM,46.4,44.6,93,30.28,10.0,NNW,8.1,-,N/A,,Overcast,340,2012-12-13 20:35:00
3:55 PM,46.4,44.6,93,30.28,10.0,North,5.8,-,N/A,,Overcast,350,2012-12-13 20:55:00
4:15 PM,46.4,44.6,93,30.28,10.0,North,5.8,-,N/A,,Overcast,350,2012-12-13 21:15:00
4:35 PM,46.4,44.6,93,30.28,10.0,NNW,6.9,-,N/A,,Overcast,340,2012-12-13 21:35:00
4:55 PM,46.4,44.6,93,30.28,10.0,North,4.6,-,N/A,,Overcast,350,2012-12-13 21:55:00
5:35 PM,46.4,44.6,93,30.29,10.0,NNW,3.5,-,N/A,,Overcast,340,2012-12-13 22:35:00
6:15 PM,46.4,44.6,93,30.30,10.0,North,4.6,-,N/A,,Overcast,350,2012-12-13 23:15:00
6:35 PM,46.4,44.6,93,30.30,10.0,North,3.5,-,N/A,,Mostly Cloudy,360,2012-12-13 23:35:00
7:35 PM,42.8,42.8,100,30.32,10.0,Calm,Calm,-,N/A,,Clear,0,2012-12-14 00:35:00
7:55 PM,42.8,42.8,100,30.31,10.0,North,3.5,-,N/A,,Clear,10,2012-12-14 00:55:00
8:55 PM,42.8,42.8,100,30.32,10.0,North,3.5,-,N/A,,Clear,10,2012-12-14 01:55:00
9:15 PM,42.8,42.8,100,30.31,10.0,Calm,Calm,-,N/A,,Clear,0,2012-12-14 02:15:00
9:35 PM,42.8,42.8,100,30.31,10.0,Calm,Calm,-,N/A,,Clear,0,2012-12-14 02:35:00
9:55 PM,42.8,42.8,100,30.31,10.0,Calm,Calm,-,N/A,,Clear,0,2012-12-14 02:55:00
10:15 PM,41.0,41.0,100,30.31,7.0,Calm,Calm,-,N/A,,Clear,0,2012-12-14 03:15:00
10:35 PM,39.2,39.2,100,30.32,5.0,West,3.5,-,N/A,,Clear,270,2012-12-14 03:35:00
10:55 PM,41.0,41.0,100,30.32,7.0,Calm,Calm,-,N/A,,Clear,0,2012-12-14 03:55:00
11:15 PM,41.0,41.0,100,30.32,10.0,NNE,3.5,-,N/A,,Clear,20,2012-12-14 04:15:00
11:35 PM,39.2,39.2,100,30.31,7.0,North,3.5,-,N/A,,Clear,10,2012-12-14 04:35:00
11:55 PM,39.2,39.2,100,30.32,7.0,Calm,Calm,-,N/A,,Clear,0,2012-12-14 04:55:00